2019-096B (44906 NORAD) Tracking and Keplerian Element Data

This shows tracking and keplerian element data for the satellite.

Feedback or suggestion? Click here.




ElementValue
Catalog44906
Name2019-096B
Epoch Orbit1136
Epoch Day87.55372929
Epoch Year2020
RAAN53.6329
Inclination82.5258
Eccentricity0.0017187
Argument of Perigee95.4516
Mean Anonmoly264.8525
Mean Motion12.42884398
Decay Rate1.5E-07
L11 44906U 19096B 20087.55372929 .00000015 00000-0 34250-4 0 9991
L22 44906 82.5258 53.6329 0017187 95.4516 264.8525 12.42884398 11369

Live tracking and technical data element details for 2019-096B (NORAD 44906). 2019-096B can be tracked NOW for your location showing map with azimuth and elevation plus other details from your city location.

Track the satellite on the map from your city or location and see movement details for azimuth, elevation, latitude, longitude, range, height, and movement on the map or in text.







IsCatalogInMostPopularTable: catalog: 44906, numindb: 18
Update: records affected: 1



GetName: 44906 2019-096B

Hit Count: updated at: Sat, 28 Mar 2020 20:02:27 GMT